[[{"header":{"parameterUnit":"m.s-1","parameterCategory":1,"la1":30.2991,"la2":30.254,"lo1":-89.0895,"lo2":-89.0444,"dy":0.0017,"dx":0.0017,"nx":28,"ny":28,"refTime":"2024-03-26T21:00:00:Z","depth":0,"parameterNumber":2,"parameterNumberName":"U-component_of_WINDS"},"data":[0,0,0,0,0,0,0,0,0,0,0,0,0,0,0,0,0,0,0,0,0,0,0,0,0,0,0,0,0,0,0,0,0,0,0,0,0,0,0,0,0,0,0,0,0,0,0,0,0,0,0,0,0,0,0,0,0,0,1.1941,1.1941,0,1.19,1.19,1.1899,1.187,1.187,1.187,1.187,1.1825,1.1824,1.1823,0,0,0,0,0,0,0,0,0,0,0,0,0,1.1992,1.1992,1.1941,1.1941,1.194,1.19,1.19,1.1899,1.187,1.187,1.187,1.187,1.1825,1.1824,1.1823,0,0,0,0,0,0,0,0,0,0,0,0,0,1.1963,1.1991,1.1941,1.1921,1.1919,1.1901,1.19,1.1899,1.1871,1.187,1.187,1.187,1.1825,1.1824,1.1823,1.182,0,0,1.1818,1.1817,0,0,0,0,0,0,0,0,1.1964,1.1961,1.1925,1.1923,1.192,1.189,1.1901,1.1873,1.1871,1.1889,1.187,1.1869,1.1847,1.1843,1.1836,1.1818,1.1816,1.1818,1.1817,1.1816,1.1816,0,0,0,0,0,0,0,1.1967,1.1962,1.1925,1.1924,1.1921,1.1914,1.1909,1.1896,1.187,1.1887,1.1885,1.1881,1.1845,1.1838,1.1835,1.1815,1.1818,1.1817,1.1816,1.1815,1.1793,1.1794,0,0,0,0,0,0,1.1972,1.1964,1.1926,1.1924,1.1942,1.1913,1.1908,1.19,1.187,1.1865,1.1881,1.188,1.1841,1.1837,1.1833,1.1828,1.1816,1.1815,1.1814,1.1793,1.1794,1.1794,0,0,0,0,0,0,1.1973,1.1969,1.1928,1.1944,1.1938,1.1912,1.1904,1.1899,1.1892,1.1865,1.186,1.1878,1.184,1.1835,1.1824,1.1827,1.1814,1.1813,1.1793,1.1793,1.1794,1.1819,0,0,0,0,0,0,1.1975,1.197,1.1969,1.1944,1.1937,1.192,1.1904,1.1899,1.189,1.1888,1.1862,1.1857,1.1839,1.1826,1.1822,1.1824,1.1812,1.1792,1.1793,1.1794,1.1818,1.182,1.1822,0,0,0,0,0,1.1977,1.1977,1.1969,1.1964,1.1936,1.192,1.1916,1.1897,1.189,1.1889,1.1872,1.1858,1.1827,1.1825,1.1821,1.1822,1.1792,1.1793,1.1794,1.1817,1.182,1.1822,0,0,0,0,0,0,1.2001,1.1973,1.1964,1.1956,1.1941,1.1915,1.1913,1.1901,1.1886,1.1884,1.1861,1.1855,1.1846,1.1833,1.1831,1.1819,1.1808,1.1808,1.1827,1.183,1.1832,1.1835,1.1811,0,0,0,0,0,1.2006,1.1996,1.1972,1.1967,1.196,1.1938,1.1931,1.1917,1.19,1.1893,1.1876,1.1859,1.1846,1.1837,1.1823,1.1816,1.181,1.1815,1.1817,1.1819,1.1819,1.1815,1.1817,1.1796,1.1796,1.1796,0,0,1.2015,1.1998,1.1993,1.1972,1.1958,1.1949,1.1933,1.1923,1.1915,1.1891,1.188,1.1867,1.1846,1.1837,1.1832,1.1826,1.1824,1.182,1.1822,1.1821,1.1816,1.1818,1.1819,1.1797,1.1797,1.1797,0,0,1.2026,1.2013,1.2007,1.1995,1.1976,1.1961,1.196,1.1937,1.1928,1.1916,1.1898,1.1889,1.1866,1.1853,1.1843,1.1851,1.1837,1.1847,1.1859,1.1855,1.1856,1.1858,1.186,1.1861,1.1847,1.1847,1.1847,0,1.2039,1.2024,1.2006,1.1998,1.1988,1.1969,1.1963,1.1951,1.1928,1.1922,1.1916,1.1888,1.1873,1.1861,1.1863,1.1856,1.1853,1.1849,1.1858,1.1859,1.186,1.1862,1.1863,1.1849,1.1849,1.1848,1.1848,0,1.2041,1.2032,1.2029,1.2009,1.2,1.1993,1.1973,1.1966,1.1954,1.194,1.1929,1.191,1.1893,1.1889,1.1877,1.1875,1.1872,1.1862,1.1851,1.1863,1.1865,1.1866,1.1851,1.185,1.185,1.1849,0,0,1.2064,1.2036,1.2035,1.2026,1.2004,1.1996,1.1988,1.1973,1.1967,1.1952,1.1944,1.1927,1.1918,1.1907,1.1893,1.189,1.1898,1.1881,1.188,1.1884,1.1895,1.1901,1.1903,1.1889,1.1889,1.1889,1.1896,0,1.2072,1.2058,1.2042,1.2033,1.2023,1.2005,1.1999,1.1984,1.1972,1.1961,1.1947,1.1935,1.1924,1.1918,1.1914,1.1898,1.1899,1.1897,1.1881,1.1881,1.1886,1.1904,1.191,1.1918,1.1897,1.1897,1.1897,0,1.2078,1.2065,1.2056,1.2036,1.2032,1.2026,1.201,1.2001,1.1985,1.1976,1.1965,1.1951,1.1941,1.1932,1.1919,1.1918,1.1911,1.1902,1.1902,1.1898,1.1889,1.19,1.1919,1.192,1.1898,1.1898,1.1898,0,1.2095,1.2076,1.2068,1.2061,1.2038,1.2034,1.2024,1.2007,1.1999,1.1986,1.198,1.1966,1.1957,1.1946,1.1929,1.1924,1.1917,1.1906,1.1908,1.1909,1.1906,1.1907,1.1924,1.1904,1.1904,1.1904,1.1904,0,1.2104,1.2099,1.2076,1.2071,1.2064,1.2046,1.204,1.2029,1.2015,1.2006,1.199,1.1983,1.196,1.195,1.1936,1.1927,1.1924,1.1916,1.1912,1.1917,1.1918,1.191,1.1909,1.1904,1.1904,1.1904,1.1904,0,1.2122,1.2106,1.2096,1.2076,1.2071,1.2067,1.2049,1.2043,1.2031,1.2021,1.2017,1.1997,1.1984,1.1966,1.1948,1.1938,1.1931,1.1926,1.1937,1.1934,1.1937,1.1937,1.195,1.1951,1.1931,1.1931,1.1931,0,1.2128,1.2124,1.2104,1.2098,1.2089,1.2079,1.2071,1.2054,1.2046,1.2028,1.2024,1.2011,1.1999,1.198,1.1963,1.1949,1.1943,1.1948,1.194,1.1945,1.1942,1.1942,1.1941,1.195,1.195,1.195,1.195,0,1.2141,1.2134,1.2123,1.2111,1.2102,1.2091,1.2079,1.2075,1.2055,1.2047,1.2035,1.2026,1.2009,1.1995,1.198,1.1968,1.1956,1.1953,1.1953,1.1957,1.1964,1.196,1.1941,1.1953,1.1952,1.1952,1.1952,1.1952,1.2152,1.2148,1.2133,1.2123,1.2112,1.2102,1.2096,1.2083,1.2073,1.2058,1.2048,1.2037,1.2021,1.1999,1.1988,1.1979,1.1973,1.1973,1.1972,1.1972,1.1974,1.1967,1.1976,1.1976,1.1976,1.1976,1.1975,0,1.2164,1.2154,1.2144,1.2129,1.2121,1.2112,1.2098,1.2092,1.2082,1.2069,1.2059,1.2045,1.2032,1.2015,1.2002,1.1997,1.1991,1.1994,1.1993,1.1991,1.198,1.1981,1.1999,1.1999,1.1999,1.1999,1.1999,1.1999,1.2168,1.2161,1.2152,1.2139,1.2129,1.2118,1.2112,1.2102,1.2092,1.2078,1.2068,1.2057,1.2043,1.2028,1.2016,1.2011,1.2007,1.2011,1.2005,1.1994,1.1992,1.199,1.1991,1.2011,1.2011,1.2017,1.2017,1.2017]},{"header":{"parameterUnit":"m.s-1","parameterCategory":1,"la1":30.2991,"la2":30.254,"lo1":-89.0895,"lo2":-89.0444,"dy":0.0017,"dx":0.0017,"nx":28,"ny":28,"refTime":"2024-03-26T21:00:00:Z","depth":0,"parameterNumber":3,"parameterNumberName":"V-component_of_WINDS"},"data":[0,0,0,0,0,0,0,0,0,0,0,0,0,0,0,0,0,0,0,0,0,0,0,0,0,0,0,0,0,0,0,0,0,0,0,0,0,0,0,0,0,0,0,0,0,0,0,0,0,0,0,0,0,0,0,0,0,0,-7.0134,-7.0136,0,-7.0319,-7.0321,-7.0323,-7.0263,-7.0259,-7.0255,-7.0252,-7.0437,-7.0446,-7.0454,0,0,0,0,0,0,0,0,0,0,0,0,0,-6.9722,-6.973,-7.0133,-7.0136,-7.0138,-7.0319,-7.0321,-7.0324,-7.0264,-7.0259,-7.0254,-7.025,-7.0434,-7.0445,-7.0455,0,0,0,0,0,0,0,0,0,0,0,0,0,-6.9904,-6.9733,-7.0133,-7.013,-7.0132,-7.0318,-7.0322,-7.0325,-7.0265,-7.0259,-7.0253,-7.0248,-7.0431,-7.0444,-7.0456,-7.0656,0,0,-7.0496,-7.0502,0,0,0,0,0,0,0,0,-6.9894,-6.9919,-7.0128,-7.0131,-7.0133,-7.0262,-7.0245,-7.0436,-7.0267,-7.0214,-7.0252,-7.0245,-7.0384,-7.04,-7.0448,-7.0665,-7.0673,-7.0497,-7.0505,-7.0511,-7.0514,0,0,0,0,0,0,0,-6.9881,-6.9911,-7.0207,-7.0131,-7.0134,-7.0118,-7.0137,-7.0281,-7.033,-7.0218,-7.0215,-7.0238,-7.0384,-7.0436,-7.0452,-7.0675,-7.0497,-7.0508,-7.0516,-7.0522,-7.1065,-7.1071,0,0,0,0,0,0,-6.9868,-6.9901,-7.0201,-7.0212,-6.9996,-7.013,-7.0152,-7.0227,-7.0328,-7.0338,-7.0242,-7.0234,-7.0416,-7.0437,-7.0458,-7.0699,-7.0511,-7.0523,-7.053,-7.1059,-7.1067,-7.1074,0,0,0,0,0,0,-6.9859,-6.9895,-7.0193,-7.0056,-7.0092,-7.0144,-7.0228,-7.0233,-7.0285,-7.0347,-7.0354,-7.0287,-7.0412,-7.044,-7.0608,-7.0704,-7.0529,-7.054,-7.1051,-7.1061,-7.107,-7.1182,0,0,0,0,0,0,-6.9848,-6.9892,-6.997,-7.0058,-7.01,-7.0342,-7.0234,-7.0241,-7.0308,-7.0299,-7.039,-7.04,-7.041,-7.0589,-7.0621,-7.0719,-7.0551,-7.1042,-7.1055,-7.1067,-7.117,-7.1195,-7.1216,0,0,0,0,0,-6.9833,-6.9993,-6.9974,-7.0011,-7.0198,-7.0347,-7.0371,-7.0381,-7.0316,-7.0394,-7.0433,-7.0397,-7.0689,-7.0606,-7.0642,-7.0746,-7.1036,-7.1052,-7.1066,-7.116,-7.119,-7.1215,0,0,0,0,0,0,-6.9913,-7.0004,-6.9984,-7.0178,-7.0256,-7.0337,-7.0435,-7.0413,-7.0509,-7.0496,-7.0503,-7.0524,-7.0697,-7.0737,-7.0644,-7.0944,-7.0852,-7.0875,-7.0911,-7.0941,-7.0963,-7.095,-7.0561,0,0,0,0,0,-6.9954,-7.0069,-7.0141,-7.0304,-7.0345,-7.0384,-7.0449,-7.045,-7.053,-7.0562,-7.0614,-7.0692,-7.0801,-7.0873,-7.0976,-7.1175,-7.1194,-7.1264,-7.1287,-7.1305,-7.1325,-7.1433,-7.1465,-7.1123,-7.1123,-7.1123,0,0,-7.0038,-7.0102,-7.0174,-7.0322,-7.0383,-7.0501,-7.0412,-7.054,-7.0627,-7.0581,-7.0744,-7.0784,-7.0871,-7.1056,-7.1139,-7.1095,-7.1424,-7.1324,-7.1339,-7.1349,-7.1452,-7.1484,-7.1513,-7.1133,-7.1131,-7.113,0,0,-7.0252,-7.0312,-7.0455,-7.0518,-7.0611,-7.0635,-7.067,-7.0755,-7.0781,-7.0944,-7.0913,-7.1015,-7.1203,-7.1267,-7.1324,-7.1563,-7.1532,-7.1596,-7.1716,-7.1821,-7.1848,-7.1872,-7.1958,-7.1988,-7.1615,-7.1616,-7.1616,0,-7.0344,-7.0522,-7.0531,-7.0663,-7.0729,-7.0694,-7.0839,-7.0898,-7.102,-7.1066,-7.1015,-7.1251,-7.1307,-7.1506,-7.1564,-7.1611,-7.165,-7.1586,-7.1844,-7.1868,-7.1891,-7.1972,-7.2004,-7.1623,-7.1622,-7.1621,-7.162,0,-7.0632,-7.0756,-7.086,-7.098,-7.1058,-7.1195,-7.1224,-7.1301,-7.1295,-7.1325,-7.1491,-7.1557,-7.1674,-7.1721,-7.1716,-7.192,-7.189,-7.1842,-7.175,-7.193,-7.2007,-7.2039,-7.1633,-7.163,-7.1628,-7.1626,0,0,-7.0902,-7.1026,-7.1064,-7.1119,-7.1219,-7.1314,-7.1449,-7.1566,-7.1632,-7.1717,-7.183,-7.199,-7.1946,-7.2011,-7.2012,-7.2105,-7.2291,-7.2045,-7.2047,-7.2089,-7.252,-7.2556,-7.2592,-7.2271,-7.2277,-7.2281,-7.2512,0,-7.1125,-7.1365,-7.1377,-7.1595,-7.1709,-7.1677,-7.1795,-7.1869,-7.19,-7.2,-7.2034,-7.2148,-7.2081,-7.212,-7.221,-7.2249,-7.2377,-7.2232,-7.2376,-7.2381,-7.2356,-7.2632,-7.2671,-7.2886,-7.2542,-7.2548,-7.2551,0,-7.1418,-7.1514,-7.1744,-7.1828,-7.1877,-7.1983,-7.209,-7.2187,-7.2269,-7.2285,-7.2358,-7.2346,-7.2483,-7.2387,-7.2575,-7.2477,-7.2536,-7.2563,-7.2572,-7.2586,-7.2478,-7.2655,-7.2955,-7.2988,-7.2599,-7.2595,-7.2591,0,-7.1593,-7.1779,-7.1941,-7.1989,-7.2091,-7.2166,-7.2212,-7.2289,-7.2358,-7.2451,-7.2496,-7.2603,-7.2662,-7.2745,-7.2762,-7.2689,-7.2951,-7.2855,-7.2968,-7.2968,-7.3025,-7.3021,-7.334,-7.3062,-7.3061,-7.306,-7.306,0,-7.1841,-7.1983,-7.2022,-7.2121,-7.2279,-7.229,-7.2446,-7.2486,-7.2554,-7.266,-7.2638,-7.2738,-7.2754,-7.2857,-7.287,-7.3025,-7.3051,-7.3068,-7.307,-7.3071,-7.3069,-7.311,-7.3096,-7.3069,-7.3067,-7.3065,-7.3064,0,-7.2064,-7.2095,-7.227,-7.2353,-7.2377,-7.249,-7.256,-7.2655,-7.2684,-7.2818,-7.285,-7.2895,-7.3015,-7.304,-7.3181,-7.3191,-7.3375,-7.3361,-7.3348,-7.3347,-7.3459,-7.3448,-7.3815,-7.3864,-7.3553,-7.3556,-7.3559,0,-7.2221,-7.233,-7.2426,-7.2496,-7.2546,-7.2659,-7.273,-7.2745,-7.2819,-7.2921,-7.3004,-7.3122,-7.3217,-7.341,-7.3454,-7.3562,-7.3552,-7.3673,-7.3568,-7.3565,-7.3555,-7.3549,-7.356,-7.3694,-7.3697,-7.37,-7.3702,0,-7.2497,-7.2508,-7.2612,-7.2722,-7.2808,-7.2894,-7.2977,-7.3035,-7.306,-7.3145,-7.3269,-7.3343,-7.3488,-7.3606,-7.3714,-7.3759,-7.3735,-7.3735,-7.3767,-7.3769,-7.3757,-7.3766,-7.3404,-7.3726,-7.3724,-7.3722,-7.3721,-7.372,-7.2693,-7.2788,-7.2871,-7.2988,-7.3051,-7.3129,-7.3223,-7.3264,-7.3368,-7.3489,-7.349,-7.3625,-7.3704,-7.3847,-7.3899,-7.4004,-7.3966,-7.4012,-7.4024,-7.4035,-7.4046,-7.374,-7.4023,-7.4023,-7.4022,-7.4022,-7.4021,0,-7.2968,-7.302,-7.3127,-7.3244,-7.3336,-7.3307,-7.3396,-7.3475,-7.3595,-7.3671,-7.3766,-7.3908,-7.4021,-7.4074,-7.4186,-7.426,-7.4252,-7.4289,-7.4284,-7.4295,-7.4073,-7.4035,-7.4294,-7.4294,-7.4294,-7.4294,-7.4294,-7.4293,-7.3123,-7.3283,-7.3303,-7.3495,-7.3545,-7.3679,-7.3732,-7.3804,-7.3865,-7.4025,-7.412,-7.4155,-7.4222,-7.4338,-7.4441,-7.4453,-7.4496,-7.4539,-7.4546,-7.4338,-7.431,-7.4284,-7.4248,-7.4547,-7.4548,-7.4759,-7.4761,-7.4762]}]]